Location: Cisewo
(53.3833°N, 14.9000°E)
Time: 11:58:38
(UTC+00:00)

Meteor 2-14 Rocket - Pass Details

Date: 18 April 2021
Orbit: 937 x 957 km, 82.5° (Epoch: 14 May)

Event Time Altitude Azimuth Distance (km) Brightness Sun altitude
Rises 19:42:43 0° 348° (NNW) 3,614 8.4 -13.1°
Reaches altitude 10° 19:45:13 10° 350° (N) 2,664 7.6 -13.4°
Maximum altitude 19:51:19 83° 77° (ENE) 952 4.4 -14.1°
Enters shadow 19:56:28 15° 167° (SSE) 2,303 6.0 -14.7°
